| time (UTC) | temp F | wind direction | speed MPH | gust MPH | rain 1hr in | rain 24hr in | rain mn in | humidity % | barometer mb |
| 20260504081512 | 36 | 360 | 0.0 | 2.0 | 0.00 | 0.00 | 0.00 | 86 | 1014.2 |
| 20260504044555 | 37 | 360 | 0.0 | 1.0 | 0.00 | 0.00 | 0.00 | 85 | 1014.1 |
| 20260504043054 | 37 | 360 | 0.0 | 1.0 | 0.00 | 0.00 | 0.00 | 85 | 1014.1 |
| 20260504041553 | 37 | 360 | 0.0 | 1.0 | 0.00 | 0.00 | 0.00 | 84 | 1014.0 |
| 20260504040050 | 37 | 360 | 0.0 | 1.0 | 0.00 | 0.00 | 0.00 | 84 | 1013.8 |
| 20260504034549 | 38 | 360 | 0.0 | 1.0 | 0.00 | 0.00 | 0.00 | 83 | 1013.8 |
| 20260504033054 | 38 | 360 | 0.0 | 1.0 | 0.00 | 0.00 | 0.00 | 83 | 1013.7 |
| 20260504031558 | 38 | 360 | 0.0 | 1.0 | 0.00 | 0.00 | 0.00 | 83 | 1013.7 |
| 20260504030050 | 39 | 360 | 0.0 | 1.0 | 0.00 | 0.00 | 0.00 | 82 | 1013.7 |
| 20260504024557 | 39 | 360 | 0.0 | 1.0 | 0.00 | 0.00 | 0.00 | 82 | 1013.9 |
| 20260504023047 | 40 | 360 | 0.0 | 1.0 | 0.00 | 0.00 | 0.00 | 81 | 1013.8 |
| 20260504021552 | 40 | 360 | 0.0 | 1.0 | 0.00 | 0.00 | 0.00 | 81 | 1013.8 |
| 20260504020049 | 41 | 360 | 0.0 | 1.0 | 0.00 | 0.00 | 0.00 | 80 | 1013.7 |
| 20260504014546 | 42 | 360 | 0.0 | 1.0 | 0.00 | 0.00 | 0.00 | 79 | 1013.7 |
| 20260504013052 | 42 | 360 | 0.0 | 1.0 | 0.00 | 0.00 | 0.00 | 78 | 1013.5 |
| 20260504011545 | 43 | 360 | 0.0 | 2.0 | 0.00 | 0.00 | 0.00 | 77 | 1013.3 |
| 20260504010045 | 45 | 360 | 0.0 | 2.0 | 0.00 | 0.00 | 0.00 | 75 | 1013.3 |
| 20260504004559 | 46 | 360 | 0.0 | 2.0 | 0.00 | 0.00 | 0.00 | 72 | 1013.3 |
| 20260504003043 | 48 | 360 | 0.0 | 1.0 | 0.00 | 0.00 | 0.00 | 69 | 1012.9 |
| 20260504001546 | 50 | 360 | 0.0 | 2.0 | 0.00 | 0.00 | 0.00 | 64 | 1012.8 |
| 20260504000044 | 52 | 360 | 0.0 | 1.0 | 0.00 | 0.00 | 0.00 | 58 | 1012.7 |
| 20260503234542 | 54 | 360 | 0.0 | 1.0 | 0.00 | 0.00 | 0.00 | 53 | 1012.7 |
| 20260503233041 | 54 | 360 | 0.0 | 2.0 | 0.00 | 0.00 | 0.00 | 48 | 1012.5 |
| 20260503231549 | 54 | 360 | 0.0 | 1.0 | 0.00 | 0.00 | 0.00 | 48 | 1012.5 |
| 20260503230041 | 55 | 360 | 0.0 | 4.0 | 0.00 | 0.00 | 0.00 | 48 | 1012.4 |
| 20260503224541 | 55 | 360 | 0.0 | 3.0 | 0.00 | 0.00 | 0.00 | 46 | 1012.4 |
| 20260503223040 | 56 | 360 | 1.0 | 8.0 | 0.00 | 0.00 | 0.00 | 43 | 1012.4 |
| 20260503221540 | 57 | 296 | 2.0 | 5.0 | 0.00 | 0.00 | 0.00 | 42 | 1012.4 |
| 20260503220040 | 57 | 171 | 0.0 | 6.0 | 0.00 | 0.00 | 0.00 | 43 | 1012.4 |
| 20260503214538 | 58 | 137 | 1.0 | 6.0 | 0.00 | 0.00 | 0.00 | 43 | 1012.5 |
| 20260503213037 | 58 | 5 | 1.0 | 6.0 | 0.00 | 0.00 | 0.00 | 42 | 1012.4 |
| 20260503211540 | 57 | 263 | 3.0 | 12.0 | 0.00 | 0.00 | 0.00 | 42 | 1012.3 |
| 20260503210036 | 57 | 261 | 3.0 | 9.0 | 0.00 | 0.00 | 0.00 | 42 | 1012.5 |
| 20260503204535 | 56 | 224 | 2.0 | 11.0 | 0.00 | 0.00 | 0.00 | 40 | 1012.4 |
| 20260503203037 | 57 | 312 | 1.0 | 8.0 | 0.00 | 0.00 | 0.00 | 40 | 1012.3 |
| 20260503201535 | 57 | 315 | 2.0 | 7.0 | 0.00 | 0.00 | 0.00 | 36 | 1012.4 |
| 20260503200033 | 57 | 260 | 2.0 | 8.0 | 0.00 | 0.00 | 0.00 | 38 | 1012.4 |
| 20260503194540 | 57 | 265 | 3.0 | 9.0 | 0.00 | 0.00 | 0.00 | 37 | 1012.6 |
| 20260503193038 | 58 | 360 | 2.0 | 11.0 | 0.00 | 0.00 | 0.00 | 39 | 1012.8 |
| 20260503191527 | 57 | 327 | 4.0 | 12.0 | 0.00 | 0.00 | 0.00 | 38 | 1012.9 |
| 20260503190031 | 57 | 101 | 1.0 | 4.0 | 0.00 | 0.00 | 0.00 | 42 | 1013.3 |
| 20260503184520 | 55 | 163 | 2.0 | 8.0 | 0.00 | 0.00 | 0.00 | 37 | 1013.7 |
| 20260503183017 | 55 | 324 | 2.0 | 8.0 | 0.00 | 0.00 | 0.00 | 40 | 1013.7 |
| 20260503181514 | 55 | 250 | 3.0 | 7.0 | 0.00 | 0.00 | 0.00 | 42 | 1014.0 |
| 20260503180012 | 54 | 120 | 2.0 | 9.0 | 0.00 | 0.00 | 0.00 | 41 | 1014.1 |
| 20260503174509 | 53 | 308 | 1.0 | 7.0 | 0.00 | 0.00 | 0.00 | 42 | 1014.3 |
| 20260503173016 | 53 | 309 | 3.0 | 12.0 | 0.00 | 0.00 | 0.00 | 42 | 1014.5 |
| 20260503171506 | 53 | 308 | 3.0 | 8.0 | 0.00 | 0.00 | 0.00 | 43 | 1014.7 |